Back to catalog

ONEWEB-0143

AliveCommunicationsPO
NORAD 47289·PAYLOAD·🇬🇧 United Kingdom

Launched Dec 18, 2020 from Vostochny Cosmodrome

Loading…

Next Passes (next 24 hours)

TLE

FreshSource: CelesTrak SupGP

Epoch: Sep 14, 2026, 14:44 UTC

1 47289C 20100AH  26257.61405509  .00004059  00000+0  11296-1 0  2579
2 47289  87.8981 332.9133 0001819 104.1513 358.3819 13.12438781    17

Track ONEWEB-0143 in real time with AllMySat

Download on the App Store